Location: Drummondville
(45.8830°N, 72.4830°W)
Time: 10:43:12
(UTC-05:00)

Tiangong 2 - Pass Details

Date: 10 November 2017
Orbit: 386 x 391 km, 42.8° (Epoch: 18 November)

Event Time Altitude Azimuth Distance (km) Brightness Sun altitude
Rises 18:35:09 0° 269° (W) 2,274 6.5 -23.0°
Reaches altitude 10° 18:37:49 10° 246° (WSW) 1,414 4.8 -23.4°
Maximum altitude 18:39:46 15° 208° (SSW) 1,141 3.7 -23.8°
Enters shadow 18:39:52 15° 205° (SSW) 1,141 3.7 -23.8°
